Location: Buffign�court
(47.8126°N, 6.0176°E)
Time: 02:29:35
(UTC+00:00)

Cosmos 724 - Pass Details

Date: 16 June 2021
Orbit: 849 x 945 km, 65.6° (Epoch: 25 July)

Event Time Altitude Azimuth Distance (km) Brightness Sun altitude
Rises 23:36:48 0° 323° (NW) 3,613 8.3 -18.8°
Reaches altitude 10° 23:39:22 10° 325° (NW) 2,658 7.6 -18.8°
Maximum altitude 23:45:36 79° 52° (NE) 948 4.5 -18.8°
Enters shadow 23:50:01 20° 137° (SE) 1,998 5.7 -18.7°
